Погода в Спаспорубе

Россия / Республика Коми     60°38′51″N   49°02′54″E
темп.,
°C
ветер,
м/с
пор.,
м/с
влажн.,
%
обл.,
%
осадки,
мм/ч
давл.,
гПа
погр.,
м
15 июня, вт
вт1500:00+13зсз249758 0.0 101293
03:00+12сз269994 0.0 1013153
06:00+15ссз23845 0.0 1014301
09:00+20сз224713 0.0 10141107
12:00+23зюз2235100 0.0 10131750
15:00+24зюз243534 0.0 10121887
18:00+24зюз25455 0.0 10101764
21:00+17ююз227068 0.0 100939
16 июня, ср
ср1600:00+18ююз2765100 0.0 1009178
03:00+15ю2282100 0.0 100838
06:00+18ююз378478 0.4 1008306
09:00+22юз356212 0.4 10061074
12:00+19зюз3788100 4.6 1006560
15:00+15сз41190100 6.1 1007583
18:00+15зсз4869100 0.0 1009751
21:00+12з24787 0.0 101177
17 июня, чт
чт1700:00+9сз248529 0.0 101275
03:00+8ссз27855 0.0 1014157
06:00+11с24565 0.0 1015441
09:00+16зсз244398 0.0 10151568
12:00+13зсз4772100 0.3 1016832
15:00+14зсз486453 0.9 10171421
18:00+13ссз276711 0.6 1019542
21:00+10с23684 0.6 102164
18 июня, пт
пт1800:00+7ссз22772 0.0 102315
03:00+7з21767 0.0 102415
06:00+12зюз23595 0.0 1024291
09:00+18зсз353670 0.0 10231444
12:00+21з4533100 0.0 10221867
15:00+22зюз4835100 0.0 10211967
18:00+20юз4845100 0.0 1019717
21:00+16юз3136641 0.0 1019336
19 июня, сб
сб1900:00+14юз3137985 0.0 1018299
03:00+15зюз4138254 0.0 1017353
06:00+19зюз414700 0.0 1016678
09:00+24з614490 0.0 10141887
12:00+27з712330 0.0 10132150
15:00+28зсз61335100 0.0 10122716
18:00+19зсз4106671 0.0 1016844
21:00+16ссз38665 0.0 1017263